Погода на Тире

Греция     36°25′00″N   25°25′59″E
темп.,
°C
ветер,
м/с
пор.,
м/с
влажн.,
%
обл.,
%
осадки,
мм/ч
давл.,
гПа
погр.,
м
5 декабря, вс
вс523:00+15всв7686100 4.4 1009337
02:00+15юв447880 5.5 1009462
05:00+16ссз887678 0.1 1010896
08:00+16с55798 0.1 1012661
11:00+16зсз55761 0.0 1013604
14:00+17з44702 0.0 1013726
17:00+17юз67712 0.0 1013997
20:00+18зюз810670 0.0 10141251
6 декабря, пн
пн623:00+18юз9106762 0.0 10151344
02:00+18ююз78682 0.1 10151009
05:00+17ююв78720 0.0 1014755
08:00+17ююз787018 0.0 1014599
11:00+18ю89715 0.0 1014701
14:00+18ююв697447 0.3 1012878
17:00+18юз1011755 0.4 10111035
20:00+18ююз1010662 0.4 1012995
7 декабря, вт
вт723:00+17ю1214680 0.0 10111473
02:00+18ююв1013640 0.0 10081522
05:00+18ю1014685 0.1 10061731
08:00+17ю151770100 0.3 10051815
11:00+16ююз101166100 2.5 10041169
14:00+16юз10116550 4.1 10021335
17:00+16зюз131468100 1.1 10021519
20:00+16зюз14156693 2.7 10021579
8 декабря, ср
ср823:00+16з14156865 1.4 10031548
02:00+16зсз9968100 3.8 10021136
05:00+15сз11117138 1.9 10051138
08:00+15сз9106618 3.3 10081356
11:00+15сз676971 0.6 1011962
14:00+16зсз77625 0.9 10111329
17:00+16зсз556012 0.1 10131392
20:00+16зюз45542 0.1 10151295
9 декабря, чт
чт923:00+16юз34530 0.0 1016973
02:00+17з56595 0.0 1016953
05:00+17з686611 0.0 1017866
08:00+17з687714 0.0 1017789
11:00+18зюз698120 0.1 1018817
14:00+18юз797994 0.3 1017931
17:00+18ю5769100 0.0 1018632
20:00+18юв5779100 0.0 1018605